Regional Weather Roundup
Issued by NWS

Home | Current Version | Previous Version | Text Only | Print | Product List | Glossary On
Versions: 1 2 3 4 5 6 7 8 9 10 11 12 13 14 15 16 17 18 19 20 21 22 23 24 25 26 27 28
000
ASUS45 KTFX 191410
RWRMT
MONTANA REGIONAL WEATHER ROUNDUP
NATIONAL WEATHER SERVICE GREAT FALLS MT
700 AM MST MON FEB 19 2018

NOTE: "FAIR" INDICATES FEW OR NO CLOUDS BELOW 12000 FEET WITH NO
SIGNIFICANT WEATHER AND/OR OBSTRUCTIONS TO VISIBILITY.

MTZ001>007-043-191500-
WEST OF THE DIVIDE

CITY           SKY/WX    TMP DP  RH WIND       PRES   REMARKS
KALISPELL      CLOUDY     1  -9  62 N9        30.00S WCI -14
MISSOULA       CLOUDY     4  -5  66 SE18      29.97R WCI -16
BUTTE          CLOUDY   -19 -24  77 CALM      29.75S HAZE
MULLAN PASS    CLOUDY    -6  -9  86 VRB5      29.62R
ANACONDA         N/A    -11 -17  77 CALM      29.83R
DEER LODGE       N/A     -8 -15  71 N3        29.87R
HAMILTON         N/A      3  -2  78 MISG      29.91R
PLAINS           N/A      7  -5  57 CALM      30.01S
RONAN            N/A      3  -4  72 E3        29.98S
$$

MTZ008-052>055-191500-
SOUTHWEST MONTANA

CITY           SKY/WX    TMP DP  RH WIND       PRES   REMARKS
BOZEMAN        CLOUDY    -5 -11  75 W12       29.86R WCI -23
DILLON         CLOUDY   -12 -12 100 NE10      29.74R WCI -31
ENNIS          MOCLDY   -11 -17  77 CALM      29.79R
W YELLOWSTONE  CLOUDY    -2  -8  78 NW3       29.52S
THREE FORKS      N/A     -6 -14  68 N2        29.88R
TWIN BRIDGES     N/A     -5 -17  56 N15       29.78  WCI -26
$$

MTZ009-010-012-014-046-048-049-054-191500-
EAST SLOPES AND CENTRAL MONTANA

CITY           SKY/WX    TMP DP  RH WIND       PRES   REMARKS
CUT BANK       CLOUDY    -9 -13  83 NW3       29.99F FOG
GREAT FALLS    LGT SNOW  -5 -10  79 NW5       30.02R
MALMSTROM AFB  LGT SNOW  -4  -7  87 CALM      30.05R
HELENA         FAIR      -6 -13  71 W8        29.96S WCI -21
AUGUSTA        LGT SNOW  -7 -11  83 N6        29.93R WCI -20
BOWMANS CRNR   LGT SNOW  -9 -12  83 CALM      29.93R
CONRAD           N/A    N/A N/A N/A W6        30.04
FAIRFIELD      FLURRIES  -6 -12  77 N6        29.99R WCI -19
POWER          FLURRIES  -6 -11  81 N6        30.00R WCI -19
ULM            LGT SNOW  -4  -8  83 NW3       30.03R
$$

MTZ011-013-016-021-045-047-050-051-191500-
NORTH CENTRAL MONTANA

CITY           SKY/WX    TMP DP  RH WIND       PRES   REMARKS
HAVRE          LGT SNOW  -7 -11  83 S3        30.13F FOG
LEWISTOWN      LGT SNOW  -6 -10  83 CALM      29.95R FOG
N BAR RANCH    LGT SNOW  -4 -11  71 CALM      29.93S
CHINOOK          N/A     -8 -13  77 NW6       30.16F WCI -21
GEYSER         LGT SNOW  -5  -9  82 W3        29.96R
STANFORD       LGT SNOW  -5  -9  85 NW3       29.91F
WINIFRED       LGT SNOW  -5  -8  85 W5        29.99S
$$

MTZ017>020-022>027-061-062-191500-
NORTHEAST MONTANA

CITY           SKY/WX    TMP DP  RH WIND       PRES   REMARKS
GLASGOW        CLOUDY    -6 -11  79 NW6       30.14S WCI -19
GLENDIVE       CLOUDY    -1  -5  82 NW6       30.14R WCI -13
JORDAN           N/A      0  -5  79 N8        30.09S WCI -14
MALTA          CLOUDY   -11 -15  84 CALM      30.17R
SIDNEY         CLOUDY   -10 -15  78 CALM      30.19
WOLF POINT     CLOUDY   -10 -17  71 CALM      30.20R
PLENTYWOOD       N/A    -11 -17  77 NW7       30.14R WCI -26
POPLAR           N/A     -9 -17  70 SW3       30.21R
SCOBEY           N/A    -19 -29  60 CALM      30.11R
$$

MTZ028>42-056>058-191500-
SOUTHCENTRAL AND SOUTHEAST MONTANA

CITY           SKY/WX    TMP DP  RH WIND       PRES   REMARKS
BAKER          CLOUDY     1  -3  83 SE5       30.05F
BILLINGS       LGT SNOW  -2  -6  83 N8        29.97F FOG     WCI -17
LIVINGSTON     MOCLDY    -5  -9  83 E13       29.86R WCI -24
MILES CITY     LGT SNOW   1  -3  83 E5        30.09R FOG
BIG TIMBER     CLOUDY    -8 -11  84 E5        29.93R
EKALAKA          N/A      0  -8  68 E6        29.93S WCI -11
FORSYTH          N/A      1  -2  85 NE3       30.06F
HARLOWTON      LGT SNOW  -4  -9  81 SE6       29.91S WCI -17
LAUREL           N/A     -2  -8  78 N8        30.00R WCI -17
$$

REGIONAL REPORTS...DAKOTAS

CITY           SKY/WX    TMP DP  RH WIND       PRES   REMARKS
WILLISTON      FAIR     -14 -21  71 CALM      30.19R
MINOT          FAIR      -9 -16  71 SW6       30.19R WCI -22
DICKINSON      CLOUDY    -1 -10  65 N5        30.09R
BEACH          CLOUDY    -2  -6  84 CALM      30.11F
CROSBY         FAIR     -20 -24  83 SW5       30.18S
TIOGA          FAIR     -15 -18  84 CALM      30.15R
BISMARCK       CLOUDY     1  -6  72 NE9       30.19R WCI -14
GRAND FORKS    CLOUDY    -1  -7  75 N16       30.25R WCI -21
FARGO          CLOUDY     4  -2  76 N17       30.18R WCI -16
BUFFALO SD       N/A      1  -7  68 NE13      29.94F WCI -17
RAPID CITY     LGT SNOW   1  -3  83 N16       30.00R FOG     WCI -19
$$

REGIONAL REPORTS...WYOMING/IDAHO/WASHINGTON

CITY           SKY/WX    TMP DP  RH WIND       PRES   REMARKS
GILLETTE       LGT SNOW  -1  -5  82 N8        29.85R FOG     WCI -15
SHERIDAN       CLOUDY    -1  -4  87 N6        29.90S WCI -13
BUFFALO WY     LGT SNOW  -1  -6  79 N3        29.80R
CODY           FLURRIES  -5 -11  75 NE10      29.78F WCI -23
YELLOWSTONE LA   N/A     -1  -5  82 CALM      29.44S
IDAHO FALLS    CLOUDY    14   3  61 N14       29.57R WCI  -1
BOISE          CLOUDY    22  18  85 NW5       29.71R
SPOKANE        FAIR       8  -3  61 N12       29.95R WCI  -7
$$

REGIONAL REPORTS...ALBERTA

CITY           SKY/WX    TMP DP  RH WIND       PRES   REMARKS
CALGARY        FLURRIES  -4 -11  71 SW8       30.00S WCI -19
CARDSTON         N/A     -9 -15  77 S1          N/A
EDMONTON       PTCLDY     0  -9  65 SW10      30.01F WCI -17
FORT MCMURRAY  FLURRIES   5   0  78 W10       29.88S WCI -10
HIGH LEVEL     CLOUDY    18   5  57 NW7       29.87F WCI   8
LETHBRIDGE     MOCLDY   -13 -18  77 SW9       30.07F WCI -31
LLOYDMINSTER   FLURRIES  -4  -8  84 SW13      30.00F WCI -23
MEDICINE HAT   CRYSTALS -11 -17  77 SW13      30.15F WCI -32
MILK RIVER       N/A     -9 -15  77 NW8         N/A  WCI -26
ONEFOUR          N/A    -11 -15  84 N3          N/A
PEACE RIVER    CLOUDY     7  -4  61 W12       29.96F WCI  -9
PINCHER CREEK  MOCLDY   -13 -18  77 W9        29.99F WCI -31
WATERTON GATE    N/A    -17 -22  76 SW2         N/A
$$

REGIONAL REPORTS...SASKATCHEWAN

CITY           SKY/WX    TMP DP  RH WIND       PRES   REMARKS
CYPRESS HILLS    N/A    -11 -18  70 CALM        N/A
ESTEVAN        FOG      -18 -24  76 W6        30.17R VSB 1   WCI -33
MOOSE JAW        N/A     -9 -15  77 SW7         N/A  WCI -24
PRINCE ALBERT  PTCLDY   -35 -42  67 CALM      30.14R
REGINA         PTCLDY   -17 -20  83 CALM      30.17R FOG
ROCKGLEN         N/A    -11 -17  77 SW2         N/A
SASKATOON      CLEAR    -18 -24  76 S8        30.15S WCI -37
SWIFT CURRENT  FLURRIES -18 -24  76 SW14      30.07R WCI -42
VAL MARIE        N/A    -27 -35  68 NE1         N/A
$$




USA.gov is the U.S. government's official web portal to all federal, state and local government web resources and services.